This demonstration page uses our WeatherBlox Daily Observations layout. Learn more.

Left ArrowRight Arrow

39.51506, -84.39828

Hourly Observations for June 16, 2021

Temp ( °F °C ) Dew Point ( °F °C ) Humidity (%) Winds ( mph kmh ) Pressure ( in mb ) Visibility ( mi km ) Precip ( " mm )
12:15 am 00:15 Clear 63 17.3 59 14.9 86 86 NE 3 6 30.01 1016 10 16 N/A
12:35 am 00:35 Partly Cloudy 64 17.5 60 15.3 87 87 N N/A 30.02 1017 10 16 N/A
12:55 am 00:55 Hazy 64 17.6 58 14.2 81 81 N N/A 30.02 1017 4 6 N/A
1:15 am 01:15 Partly Cloudy 62 16.9 58 14.4 85 85 N 5 7 30.03 1017 10 16 N/A
1:35 am 01:35 Clear 60 15.7 59 14.8 94 94 N 6 9 30.03 1017 10 16 N/A
1:55 am 01:55 Cloudy 61 16 59 14.8 93 93 NNE 6 9 30.03 1017 10 16 N/A
2:15 am 02:15 Cloudy 62 16.8 57 13.8 83 83 NE 6 9 30.03 1017 10 16 N/A
2:35 am 02:35 Partly Cloudy 62 16.6 56 13.4 82 82 NE 5 7 30.03 1017 10 16 N/A
2:55 am 02:55 Clear 61 15.9 56 13.3 85 85 N N/A 30.03 1017 10 16 N/A
3:15 am 03:15 Clear 60 15.3 55 13 86 86 N N/A 30.05 1017 10 16 N/A
3:35 am 03:35 Partly Cloudy 59 15.1 57 13.8 92 92 NW 3 6 30.05 1017 10 16 N/A
3:55 am 03:55 Partly Cloudy 58 14.5 57 14.1 97 97 N 3 6 30.06 1018 10 16 N/A
4:15 am 04:15 Cloudy 57 14 57 13.8 99 99 N N/A 30.06 1018 10 16 N/A
4:35 am 04:35 Cloudy 58 14.6 56 13.6 94 94 N N/A 30.06 1018 10 16 N/A
4:55 am 04:55 Cloudy 58 14.5 58 14.4 99 99 N N/A 30.06 1018 10 16 N/A
5:15 am 05:15 Cloudy 58 14.7 58 14.7 100 100 NE 5 7 30.07 1018 10 16 N/A
5:35 am 05:35 Cloudy 58 14.7 57 14.1 96 96 N 3 6 30.07 1018 10 16 N/A
5:55 am 05:55 Cloudy 58 14.5 57 13.7 95 95 N 5 7 30.08 1019 10 16 N/A
6:15 am 06:15 Cloudy 59 14.8 57 13.8 94 94 N 3 6 30.09 1019 10 16 N/A
6:35 am 06:35 Partly Cloudy 58 14.5 56 13.4 93 93 NNE 3 6 30.10 1019 10 16 N/A
6:55 am 06:55 Mostly Cloudy 59 15.2 56 13.5 90 90 NNE 5 7 30.11 1020 10 16 N/A
7:15 am 07:15 Sunny 61 16.2 56 13.4 84 84 NNE 5 7 30.10 1019 10 16 N/A
7:35 am 07:35 Sunny 62 16.9 56 13.1 78 78 ENE 6 9 30.10 1019 10 16 N/A
7:55 am 07:55 Sunny 63 17.2 55 12.9 76 76 ENE 6 9 30.10 1019 10 16 N/A
8:15 am 08:15 Sunny 64 17.7 54 12.1 70 70 ENE 6 9 30.11 1020 10 16 N/A
8:35 am 08:35 Sunny 65 18.4 50 10.2 59 59 ENE 8 13 30.11 1020 10 16 N/A
8:55 am 08:55 Sunny 66 19 47 8.6 51 51 ENE 8 13 30.12 1020 10 16 N/A
9:15 am 09:15 Sunny 67 19.2 46 8 48 48 ENE 8 13 30.12 1020 10 16 N/A
9:35 am 09:35 Sunny 67 19.5 46 7.6 46 46 E 7 11 30.13 1020 10 16 N/A
9:55 am 09:55 Sunny 68 19.8 45 7.2 44 44 ENE 7 11 30.12 1020 10 16 N/A
10:15 am 10:15 Sunny 69 20.6 46 7.7 44 44 NE 7 11 30.11 1020 10 16 N/A
10:35 am 10:35 Sunny 69 20.7 43 6.1 39 39 ENE 7 11 30.11 1020 10 16 N/A
10:55 am 10:55 Sunny 70 21.2 44 6.8 39 39 N N/A 30.10 1019 10 16 N/A
11:15 am 11:15 Sunny 71 21.4 45 7 39 39 E 5 7 30.10 1019 10 16 N/A
11:35 am 11:35 Sunny 71 21.6 41 4.8 33 33 NE 5 7 30.11 1020 10 16 N/A
11:55 am 11:55 Sunny 72 22.2 44 6.5 36 36 NE 5 7 30.11 1020 10 16 N/A
12:15 pm 12:15 Sunny 72 22.2 43 6.1 35 35 N N/A 30.11 1020 10 16 N/A
12:35 pm 12:35 Sunny 73 22.7 45 7.2 37 37 ENE 5 7 30.09 1019 10 16 N/A
12:55 pm 12:55 Sunny 73 22.9 44 6.6 35 35 ENE 3 6 30.09 1019 10 16 N/A
1:15 pm 13:15 Sunny 73 23 45 7.3 37 37 ENE 6 9 30.09 1019 10 16 N/A
1:35 pm 13:35 Sunny 75 23.7 44 6.8 34 34 N N/A 30.08 1018 10 16 N/A
1:55 pm 13:55 Sunny 75 23.9 47 8.2 37 37 NE 6 9 30.08 1018 10 16 N/A
2:15 pm 14:15 Sunny 75 24 47 8.1 36 36 NE 3 6 30.08 1018 10 16 N/A
2:35 pm 14:35 Sunny 76 24.4 48 8.9 37 37 E 6 9 30.06 1018 10 16 N/A
2:55 pm 14:55 Sunny 76 24.7 48 8.7 36 36 NNE 3 6 30.05 1018 7 11 N/A
3:15 pm 15:15 Sunny 76 24.6 48 9.1 37 37 NNW 6 9 30.04 1017 10 16 N/A
3:35 pm 15:35 Sunny 77 24.8 47 8.2 35 35 N 3 6 30.04 1017 10 16 N/A
3:55 pm 15:55 Sunny 77 25 48 9.1 37 37 NE 9 15 30.04 1017 10 16 N/A
4:15 pm 16:15 Sunny 77 25.2 48 9.1 36 36 NNW 7 11 30.04 1017 10 16 N/A
4:35 pm 16:35 Sunny 77 25.1 47 8.2 34 34 NNW 9 15 30.04 1017 10 16 N/A
4:55 pm 16:55 Sunny 77 25.2 47 8.1 34 34 NE 3 6 30.03 1017 10 16 N/A
5:15 pm 17:15 Sunny 77 25.2 47 8.6 35 35 NW 3 6 30.03 1017 10 16 N/A
5:35 pm 17:35 Sunny 77 25.2 45 7.3 32 32 NW 3 6 30.02 1017 10 16 N/A
5:55 pm 17:55 Sunny 78 25.3 45 7 31 31 N N/A 30.02 1017 10 16 N/A
6:15 pm 18:15 Sunny 77 25.2 46 7.5 32 32 WNW 6 9 30.02 1017 10 16 N/A
6:35 pm 18:35 Sunny 78 25.3 47 8.5 34 34 NNW 6 9 30.02 1017 10 16 N/A
6:55 pm 18:55 Sunny 77 25.1 47 8.4 35 35 NNW 5 7 30.01 1016 10 16 N/A
7:15 pm 19:15 Sunny 77 24.9 45 7.3 33 33 NNW 6 9 30.01 1016 10 16 N/A
7:35 pm 19:35 Sunny 76 24.7 46 7.9 34 34 N 7 11 30.01 1016 10 16 N/A
7:55 pm 19:55 Sunny 75 24.1 49 9.2 39 39 N 3 6 30.02 1016 10 16 N/A
8:15 pm 20:15 Sunny 75 23.7 49 9.3 40 40 N 3 6 30.02 1016 10 16 N/A
8:35 pm 20:35 Sunny 71 21.4 57 13.7 62 62 NNW 3 6 30.02 1017 10 16 N/A
8:55 pm 20:55 Sunny 67 19.5 57 14 71 71 N N/A 30.03 1017 10 16 N/A
9:15 pm 21:15 Clear 64 18 56 13.4 75 75 N 3 6 30.03 1017 10 16 N/A
9:35 pm 21:35 Clear 62 16.6 55 12.9 79 79 N N/A 30.03 1017 10 16 N/A
9:55 pm 21:55 Clear 61 16.1 56 13.1 83 83 N N/A 30.03 1017 10 16 N/A
10:15 pm 22:15 Clear 61 16 55 12.7 81 81 N 3 6 30.03 1017 10 16 N/A
10:35 pm 22:35 Clear 60 15.4 55 12.5 83 83 N 5 7 30.05 1017 10 16 N/A
10:55 pm 22:55 Clear 58 14.2 54 12.4 89 89 N N/A 30.06 1018 10 16 N/A
11:15 pm 23:15 Clear 59 15 54 12.1 83 83 N N/A 30.06 1018 10 16 N/A
11:35 pm 23:35 Partly Cloudy 57 14.1 55 12.6 91 91 N N/A 30.06 1018 10 16 N/A
11:55 pm 23:55 Mostly Cloudy 58 14.4 54 12.1 86 86 NNE 3 6 30.06 1018 10 16 N/A

Powered by AerisWeather